This demonstration page uses our WeatherBlox Daily Observations layout. Learn more.

Left ArrowRight Arrow

41.55636, -103.73856

Hourly Observations for June 19, 2019

Temp ( °F °C ) Dew Point ( °F °C ) Humidity (%) Winds ( mph kmh ) Pressure ( in mb ) Visibility ( mi km ) Precip ( " mm )
6:58 pm 18:58 Partly Cloudy 57 13.7 52 11.1 84 84 E 8 13 29.93 1014 10 16 0.00 0.00
7:58 pm 19:58 Mostly Cloudy with Light Rain 56 13.1 53 11.4 90 90 E 6 9 29.93 1014 10 16 0.00 0.00
8:58 pm 20:58 Partly Cloudy 53 11.7 51 10.7 94 94 S 7 11 29.92 1013 10 16 0.00 0.00
9:58 pm 21:58 Clear 51 10.8 50 10 95 95 SSW 9 15 29.93 1014 10 16 0.00 0.00
10:58 pm 22:58 Clear 51 10.7 50 9.8 94 94 SSW 8 13 29.92 1013 10 16 0.00 0.00
11:58 pm 23:58 Clear 51 10.3 49 9.3 94 94 W 7 11 29.90 1012 10 16 0.00 0.00
12:58 am 00:58 Clear 50 10.2 48 9 92 92 W 8 13 29.89 1012 10 16 0.01 0.25
1:58 am 01:58 Mostly Clear 51 10.7 47 8.6 87 87 W 14 22 29.88 1012 10 16 0.00 0.00
2:58 am 02:58 Mostly Clear 50 10.1 47 8.2 88 88 NW 14 22 29.89 1012 10 16 0.00 0.00
3:58 am 03:58 Mostly Cloudy with Patchy Fog 50 9.8 48 9.1 95 95 NNW 7 11 29.90 1012 5 8 0.00 0.00
4:58 am 04:58 Partly Cloudy 50 9.8 48 8.7 93 93 WNW 15 24 29.90 1012 10 16 0.00 0.00
5:58 am 05:58 Mostly Cloudy 49 9.4 47 8.1 92 92 W 13 20 29.85 1011 10 16 0.00 0.00
6:58 am 06:58 Sunny 51 10.4 47 8.4 88 88 W 16 26 29.88 1012 10 16 0.00 0.00
8:58 am 08:58 Sunny 60 15.8 52 11 73 73 WNW 15 24 29.85 1011 10 16 0.00 0.00
9:58 am 09:58 Sunny 65 18.4 50 9.8 57 57 NNW 15 24 29.83 1010 10 16 0.00 0.00
10:58 am 10:58 Sunny 68 19.8 47 8.2 47 47 NW 10 17 29.83 1010 10 16 0.00 0.00
11:58 am 11:58 Sunny 69 20.7 47 8.3 45 45 NNW 8 13 29.80 1009 10 16 0.00 0.00
12:58 pm 12:58 Partly Cloudy 71 21.8 49 9.4 45 45 N 9 15 29.78 1008 10 16 0.00 0.00
1:58 pm 13:58 Mostly Sunny 72 22.1 47 8.4 42 42 NW 5 7 29.75 1008 10 16 0.00 0.00
2:58 pm 14:58 Partly Cloudy with Light Rain and Scattered Storms 70 21.1 52 10.9 52 52 NW 18 30 29.75 1008 9 14 0.07 1.78
3:58 pm 15:58 Mostly Sunny 72 22 47 8.6 42 42 Calm 29.71 1006 10 16 0.02 0.51

Powered by AerisWeather